SDM6303 ULLI-ULAA

Flight info

Callsign SDM6303
Flight time 1h 25m
Altitude 35000
Route RELNI T693 DISUP T821 MAKOG
Aircraft SU95/M-VGDW/C

Departure

Time 2026-05-06 07:52
Airport Pulkovo Airport (ULLI)

Arrival

Time 2026-05-06 09:18
Airport Talagi Airport (ULAA)
Time Latitude Longitude Altitude Speed Heading
2026-05-06 07:30 59.79740 30.26608 77 ft 0 kts 107°
2026-05-06 07:42 59.79743 30.26589 51 ft 4 kts 105°
2026-05-06 07:42 59.79750 30.26540 73 ft 4 kts 107°
2026-05-06 07:42 59.79757 30.26514 72 ft 2 kts 151°
2026-05-06 07:43 59.79768 30.26511 72 ft 2 kts 187°
2026-05-06 07:43 59.79779 30.26516 78 ft 2 kts 195°
2026-05-06 07:43 59.79789 30.26522 72 ft 2 kts 197°
2026-05-06 07:43 59.79794 30.26525 73 ft 0 kts 198°
2026-05-06 07:46 59.79784 30.26518 79 ft 3 kts 198°
2026-05-06 07:46 59.79752 30.26498 74 ft 6 kts 198°
2026-05-06 07:47 59.79708 30.26470 78 ft 8 kts 198°
2026-05-06 07:47 59.79653 30.26436 74 ft 9 kts 197°
2026-05-06 07:47 59.79591 30.26399 81 ft 9 kts 192°
2026-05-06 07:47 59.79564 30.26387 77 ft 0 kts 194°
2026-05-06 07:49 59.79562 30.26386 77 ft 1 kts 195°
2026-05-06 07:49 59.79546 30.26377 84 ft 3 kts 195°
2026-05-06 07:49 59.79529 30.26368 83 ft 2 kts 196°
2026-05-06 07:49 59.79514 30.26359 82 ft 3 kts 195°
2026-05-06 07:50 59.79492 30.26381 82 ft 6 kts 127°
2026-05-06 07:50 59.79457 30.26426 83 ft 7 kts 180°
2026-05-06 07:50 59.79410 30.26402 82 ft 7 kts 198°
2026-05-06 07:50 59.79358 30.26366 82 ft 8 kts 199°
2026-05-06 07:51 59.79328 30.26283 82 ft 6 kts 274°
2026-05-06 07:51 59.79330 30.26262 81 ft 2 kts 284°
2026-05-06 07:51 59.79372 30.25967 85 ft 52 kts 287°
2026-05-06 07:51 59.79534 30.24889 82 ft 109 kts 286°
2026-05-06 07:52 59.79792 30.23148 156 ft 145 kts 287°
2026-05-06 07:52 59.80081 30.21243 581 ft 147 kts 288°
2026-05-06 07:52 59.80374 30.19351 1199 ft 140 kts 288°
2026-05-06 07:52 59.80641 30.17497 1703 ft 141 kts 286°
2026-05-06 07:53 59.80922 30.15527 2069 ft 156 kts 286°
2026-05-06 07:53 59.81236 30.13380 2585 ft 167 kts 287°
2026-05-06 07:53 59.81576 30.11104 3175 ft 179 kts 288°
2026-05-06 07:53 59.81953 30.08615 3668 ft 197 kts 287°
2026-05-06 07:54 59.82356 30.05889 4199 ft 213 kts 287°
2026-05-06 07:54 59.82768 30.03068 5067 ft 216 kts 287°
2026-05-06 07:54 59.83471 30.00356 5729 ft 230 kts 312°
2026-05-06 07:54 59.84847 29.98669 6534 ft 240 kts 342°
2026-05-06 07:55 59.86546 29.98593 7279 ft 256 kts
2026-05-06 07:55 59.88315 29.99513 8013 ft 267 kts 13°
2026-05-06 07:55 59.90106 30.00626 8896 ft 272 kts 13°
2026-05-06 07:55 59.91835 30.02265 9757 ft 284 kts 35°
2026-05-06 07:56 59.93130 30.05349 10427 ft 301 kts 61°
2026-05-06 07:56 59.93698 30.09436 11021 ft 315 kts 88°
2026-05-06 07:56 59.93415 30.13793 11663 ft 322 kts 110°
2026-05-06 07:56 59.92638 30.18038 12323 ft 328 kts 118°
2026-05-06 07:57 59.91567 30.22076 12996 ft 333 kts 125°
2026-05-06 07:57 59.90463 30.26215 13709 ft 342 kts 123°
2026-05-06 07:57 59.89423 30.30534 14376 ft 350 kts 117°
2026-05-06 07:57 59.88752 30.35174 15077 ft 359 kts 103°
2026-05-06 07:58 59.88529 30.40212 15598 ft 372 kts 95°
2026-05-06 07:58 59.88398 30.45377 16308 ft 374 kts 95°
2026-05-06 07:58 59.88265 30.50545 17100 ft 374 kts 96°
2026-05-06 07:58 59.88122 30.55745 17809 ft 378 kts 96°
2026-05-06 07:59 59.87970 30.60986 18430 ft 382 kts 96°
2026-05-06 07:59 59.87933 30.66284 18982 ft 388 kts 83°
2026-05-06 07:59 59.88671 30.71465 19508 ft 390 kts 60°
2026-05-06 07:59 59.90062 30.76088 20039 ft 390 kts 52°
2026-05-06 08:00 59.91595 30.80573 20621 ft 393 kts 50°
2026-05-06 08:00 59.93158 30.85076 21185 ft 397 kts 51°
2026-05-06 08:00 59.94719 30.89642 21733 ft 401 kts 51°
2026-05-06 08:00 59.96260 30.94226 22265 ft 405 kts 52°
2026-05-06 08:01 59.97825 30.98937 22813 ft 409 kts 52°
2026-05-06 08:01 59.99397 31.03705 23354 ft 413 kts 52°
2026-05-06 08:01 60.00978 31.08517 23830 ft 416 kts 52°
2026-05-06 08:01 60.02569 31.13372 24299 ft 418 kts 52°
2026-05-06 08:02 60.04163 31.18246 24772 ft 420 kts 52°
2026-05-06 08:02 60.05768 31.23165 25217 ft 423 kts 52°
2026-05-06 08:02 60.07380 31.28109 25658 ft 425 kts 52°
2026-05-06 08:02 60.08999 31.33087 26088 ft 428 kts 52°
2026-05-06 08:03 60.10624 31.38096 26512 ft 430 kts 52°
2026-05-06 08:03 60.12260 31.43145 26927 ft 433 kts 52°
2026-05-06 08:03 60.13902 31.48228 27341 ft 435 kts 52°
2026-05-06 08:03 60.15548 31.53343 27735 ft 438 kts 52°
2026-05-06 08:04 60.17191 31.58515 28125 ft 440 kts 52°
2026-05-06 08:04 60.18837 31.63715 28517 ft 443 kts 52°
2026-05-06 08:04 60.20470 31.68885 28888 ft 445 kts 52°
2026-05-06 08:04 60.22130 31.74151 29252 ft 447 kts 52°
2026-05-06 08:05 60.23804 31.79467 29477 ft 454 kts 52°
2026-05-06 08:05 60.25435 31.84639 29582 ft 462 kts 52°
2026-05-06 08:05 60.27178 31.90152 29695 ft 471 kts 52°
2026-05-06 08:05 60.28959 31.95769 29813 ft 480 kts 52°
2026-05-06 08:06 60.30965 32.01156 29920 ft 480 kts 39°
2026-05-06 08:06 60.33473 32.05533 30024 ft 475 kts 25°
2026-05-06 08:06 60.36351 32.08650 30109 ft 467 kts 12°
2026-05-06 08:06 60.39446 32.10392 30194 ft 457 kts 358°
2026-05-06 08:07 60.42582 32.10722 30286 ft 447 kts 345°
2026-05-06 08:07 60.45618 32.09766 30517 ft 440 kts 338°
2026-05-06 08:07 60.48577 32.08496 30841 ft 441 kts 338°
2026-05-06 08:07 60.51589 32.07210 31148 ft 444 kts 338°
2026-05-06 08:08 60.54628 32.05950 31432 ft 448 kts 339°
2026-05-06 08:08 60.57693 32.04712 31713 ft 451 kts 339°
2026-05-06 08:08 60.60782 32.03483 32000 ft 453 kts 339°
2026-05-06 08:08 60.63888 32.02255 32292 ft 455 kts 339°
2026-05-06 08:09 60.64673 32.01945 32410 ft 455 kts 339°
2026-05-06 08:12 60.65411 32.01654 32520 ft 454 kts 339°
2026-05-06 08:13 60.68511 32.00463 32950 ft 455 kts 341°
2026-05-06 08:13 60.71651 31.99817 33309 ft 464 kts 348°
2026-05-06 08:13 60.74905 31.99883 33640 ft 471 kts 353°
2026-05-06 08:13 60.78183 32.00154 33958 ft 471 kts 353°
2026-05-06 08:14 60.81457 32.00389 34213 ft 471 kts 353°
2026-05-06 08:14 60.84732 32.00621 34465 ft 471 kts 353°
2026-05-06 08:14 60.88013 32.00860 34708 ft 472 kts 353°
2026-05-06 08:14 60.91297 32.01116 34918 ft 474 kts 355°
2026-05-06 08:15 60.94594 32.02151 34903 ft 486 kts
2026-05-06 08:15 60.97813 32.04565 34898 ft 499 kts 19°
2026-05-06 08:15 61.00819 32.08295 34898 ft 511 kts 31°
2026-05-06 08:15 61.03511 32.13156 34898 ft 518 kts 40°
2026-05-06 08:16 61.08503 32.23937 34893 ft 519 kts 41°
2026-05-06 08:16 61.13526 32.34515 34895 ft 519 kts 40°
2026-05-06 08:17 61.18664 32.45015 34885 ft 519 kts 40°
2026-05-06 08:17 61.23810 32.55503 34882 ft 519 kts 40°
2026-05-06 08:18 61.28970 32.66020 34877 ft 519 kts 39°
2026-05-06 08:18 61.34198 32.76370 34867 ft 519 kts 39°
2026-05-06 08:19 61.39437 32.86776 34864 ft 520 kts 39°
2026-05-06 08:19 61.44657 32.97239 34858 ft 521 kts 39°
2026-05-06 08:20 61.49546 33.08467 34850 ft 526 kts 49°
2026-05-06 08:20 61.54016 33.20505 34844 ft 526 kts 49°
2026-05-06 08:21 61.58516 33.32618 34836 ft 527 kts 49°
2026-05-06 08:21 61.63008 33.44810 34836 ft 527 kts 49°
2026-05-06 08:22 61.67484 33.57040 34831 ft 528 kts 49°
2026-05-06 08:22 61.71953 33.69315 34830 ft 528 kts 49°
2026-05-06 08:23 61.76388 33.81564 34829 ft 528 kts 49°
2026-05-06 08:23 61.80841 33.93928 34829 ft 529 kts 49°
2026-05-06 08:24 61.85281 34.06322 34835 ft 529 kts 50°
2026-05-06 08:24 61.90057 34.18050 34832 ft 522 kts 37°
2026-05-06 08:25 61.95586 34.27932 34833 ft 519 kts 35°
2026-05-06 08:25 62.01116 34.37844 34822 ft 520 kts 35°
2026-05-06 08:26 62.06522 34.47563 34815 ft 519 kts 35°
2026-05-06 08:26 62.12006 34.57457 34803 ft 519 kts 35°
2026-05-06 08:27 62.20038 34.72034 34794 ft 519 kts 36°
2026-05-06 08:41 62.23277 34.77942 34790 ft 518 kts 36°
2026-05-06 08:41 62.28574 34.87642 34793 ft 518 kts 36°
2026-05-06 08:42 62.34048 34.97716 34786 ft 518 kts 36°
2026-05-06 08:42 62.39507 35.07810 34781 ft 517 kts 36°
2026-05-06 08:43 62.44933 35.18009 34779 ft 517 kts 37°
2026-05-06 08:43 62.50319 35.28270 34778 ft 516 kts 37°
2026-05-06 08:44 62.55700 35.38554 34773 ft 515 kts 37°
2026-05-06 08:44 62.61064 35.48847 34768 ft 515 kts 37°
2026-05-06 08:45 62.66384 35.59104 34763 ft 514 kts 37°
2026-05-06 08:45 62.71723 35.69450 34762 ft 514 kts 37°
2026-05-06 08:46 62.77061 35.79845 34759 ft 514 kts 38°
2026-05-06 08:46 62.82384 35.90266 34756 ft 514 kts 38°
2026-05-06 08:47 62.87702 36.00729 34755 ft 514 kts 38°
2026-05-06 08:47 62.93035 36.11158 34753 ft 514 kts 38°
2026-05-06 08:48 62.97478 36.19831 34749 ft 514 kts 38°
2026-05-06 08:48 63.01911 36.28535 34746 ft 514 kts 38°
2026-05-06 08:49 63.08136 36.40834 34739 ft 514 kts 38°
2026-05-06 08:49 63.13462 36.51417 34738 ft 515 kts 38°
2026-05-06 08:50 63.19638 36.63765 34739 ft 515 kts 40°
2026-05-06 08:50 63.24427 36.75682 34736 ft 519 kts 48°
2026-05-06 08:51 63.28259 36.85920 34735 ft 519 kts 47°
2026-05-06 08:51 63.32873 36.98290 34731 ft 520 kts 48°
2026-05-06 08:51 63.35172 37.04499 34586 ft 520 kts 48°
2026-05-06 08:52 63.38218 37.12762 34227 ft 520 kts 48°
2026-05-06 08:52 63.39764 37.16970 34056 ft 521 kts 48°
2026-05-06 08:52 63.42061 37.23237 33782 ft 521 kts 48°
2026-05-06 08:52 63.44355 37.29520 33468 ft 522 kts 48°
2026-05-06 08:53 63.46624 37.35744 33150 ft 524 kts 48°
2026-05-06 08:53 63.48927 37.42077 32835 ft 526 kts 48°
2026-05-06 08:53 63.51235 37.48440 32483 ft 525 kts 48°
2026-05-06 08:53 63.53523 37.54773 31977 ft 520 kts 48°
2026-05-06 08:54 63.55790 37.61064 31454 ft 518 kts 48°
2026-05-06 08:54 63.58047 37.67344 30936 ft 515 kts 48°
2026-05-06 08:54 63.60288 37.73596 30427 ft 513 kts 48°
2026-05-06 08:54 63.62517 37.79833 29934 ft 510 kts 48°
2026-05-06 08:55 63.64733 37.86050 29366 ft 508 kts 48°
2026-05-06 08:55 63.66935 37.92242 28775 ft 505 kts 48°
2026-05-06 08:55 63.69124 37.98418 28190 ft 503 kts 48°
2026-05-06 08:55 63.71299 38.04570 27619 ft 500 kts 48°
2026-05-06 08:56 63.73455 38.10686 27062 ft 497 kts 49°
2026-05-06 08:56 63.75598 38.16781 26463 ft 495 kts 49°
2026-05-06 08:56 63.77712 38.22808 25839 ft 494 kts 49°
2026-05-06 08:56 63.79840 38.28893 25266 ft 492 kts 49°
2026-05-06 08:57 63.81954 38.34954 24699 ft 490 kts 49°
2026-05-06 08:57 63.84058 38.41005 24147 ft 487 kts 49°
2026-05-06 08:57 63.86149 38.47033 23609 ft 485 kts 49°
2026-05-06 08:57 63.88221 38.53023 23029 ft 482 kts 49°
2026-05-06 08:58 63.90281 38.58994 22436 ft 477 kts 49°
2026-05-06 08:58 63.90896 38.60781 22282 ft 475 kts 49°
2026-05-06 08:58 63.92917 38.66659 21780 ft 469 kts 49°
2026-05-06 08:58 63.94904 38.72457 21278 ft 462 kts 50°
2026-05-06 08:59 63.96862 38.78183 20800 ft 455 kts 50°
2026-05-06 08:59 63.98761 38.83748 20331 ft 447 kts 50°
2026-05-06 08:59 64.00652 38.89305 19863 ft 440 kts 50°
2026-05-06 08:59 64.02510 38.94776 19399 ft 433 kts 50°
2026-05-06 09:00 64.04335 39.00165 18986 ft 424 kts 50°
2026-05-06 09:00 64.06061 39.05544 18592 ft 417 kts 56°
2026-05-06 09:00 64.07425 39.11315 18196 ft 410 kts 64°
2026-05-06 09:00 64.08629 39.17164 17722 ft 403 kts 63°
2026-05-06 09:01 64.09826 39.22901 17199 ft 397 kts 63°
2026-05-06 09:01 64.11008 39.28558 16701 ft 391 kts 63°
2026-05-06 09:01 64.12171 39.34151 16200 ft 386 kts 63°
2026-05-06 09:01 64.13293 39.39573 15706 ft 378 kts 63°
2026-05-06 09:02 64.14402 39.44957 15243 ft 371 kts 63°
2026-05-06 09:02 64.15493 39.50270 14772 ft 367 kts 63°
2026-05-06 09:02 64.16569 39.55523 14304 ft 361 kts 63°
2026-05-06 09:02 64.17622 39.60681 13866 ft 353 kts 63°
2026-05-06 09:03 64.18651 39.65731 13463 ft 346 kts 63°
2026-05-06 09:03 64.19656 39.70679 13015 ft 339 kts 63°
2026-05-06 09:03 64.20635 39.75505 12572 ft 333 kts 63°
2026-05-06 09:03 64.21605 39.80297 12128 ft 328 kts 63°
2026-05-06 09:04 64.22561 39.85027 11726 ft 325 kts 63°
2026-05-06 09:04 64.23506 39.89718 11334 ft 322 kts 63°
2026-05-06 09:04 64.24432 39.94321 10923 ft 321 kts 63°
2026-05-06 09:04 64.25367 39.98983 10479 ft 321 kts 63°
2026-05-06 09:05 64.26300 40.03641 10050 ft 321 kts 63°
2026-05-06 09:05 64.27232 40.08308 9606 ft 321 kts 63°
2026-05-06 09:05 64.28163 40.12981 9150 ft 321 kts 63°
2026-05-06 09:05 64.29093 40.17662 8678 ft 321 kts 63°
2026-05-06 09:06 64.30020 40.22341 8214 ft 321 kts 63°
2026-05-06 09:06 64.30945 40.27017 7791 ft 320 kts 63°
2026-05-06 09:06 64.31862 40.31666 7415 ft 317 kts 63°
2026-05-06 09:06 64.32769 40.36275 7037 ft 314 kts 63°
2026-05-06 09:07 64.33648 40.40753 6679 ft 308 kts 64°
2026-05-06 09:07 64.34521 40.45210 6323 ft 302 kts 63°
2026-05-06 09:07 64.35377 40.49590 5957 ft 297 kts 63°
2026-05-06 09:07 64.36218 40.53899 5584 ft 292 kts 63°
2026-05-06 09:08 64.37045 40.58144 5218 ft 288 kts 63°
2026-05-06 09:08 64.37860 40.62338 4844 ft 285 kts 63°
2026-05-06 09:08 64.38666 40.66491 4539 ft 282 kts 63°
2026-05-06 09:08 64.39459 40.70591 4267 ft 277 kts 63°
2026-05-06 09:09 64.40238 40.74622 3995 ft 272 kts 64°
2026-05-06 09:09 64.41004 40.78592 3724 ft 268 kts 64°
2026-05-06 09:09 64.41756 40.82497 3514 ft 262 kts 64°
2026-05-06 09:09 64.42493 40.86333 3354 ft 261 kts 64°
2026-05-06 09:10 64.43222 40.90133 3199 ft 261 kts 64°
2026-05-06 09:10 64.43954 40.93956 3046 ft 260 kts 64°
2026-05-06 09:10 64.44686 40.97790 2889 ft 259 kts 64°
2026-05-06 09:10 64.45410 41.01582 2727 ft 258 kts 64°
2026-05-06 09:11 64.46129 41.05364 2573 ft 254 kts 64°
2026-05-06 09:11 64.46826 41.09048 2409 ft 245 kts 64°
2026-05-06 09:11 64.47624 41.12434 2235 ft 235 kts 43°
2026-05-06 09:11 64.48955 41.14434 2128 ft 227 kts
2026-05-06 09:12 64.50490 41.14995 2018 ft 223 kts 360°
2026-05-06 09:12 64.52018 41.15378 1899 ft 217 kts 359°
2026-05-06 09:12 64.53468 41.15739 1787 ft 203 kts 359°
2026-05-06 09:12 64.54829 41.16071 1714 ft 192 kts 355°
2026-05-06 09:13 64.56079 41.15628 1664 ft 180 kts 331°
2026-05-06 09:13 64.57114 41.14128 1629 ft 172 kts 310°
2026-05-06 09:13 64.57805 41.11932 1636 ft 167 kts 291°
2026-05-06 09:13 64.58109 41.09393 1638 ft 162 kts 273°
2026-05-06 09:14 64.58229 41.06793 1633 ft 161 kts 276°
2026-05-06 09:14 64.58387 41.04207 1629 ft 161 kts 276°
2026-05-06 09:14 64.58538 41.01631 1631 ft 158 kts 275°
2026-05-06 09:14 64.58672 40.99212 1633 ft 147 kts 274°
2026-05-06 09:15 64.58786 40.96882 1628 ft 142 kts 275°
2026-05-06 09:15 64.58895 40.94704 1639 ft 131 kts 274°
2026-05-06 09:15 64.58997 40.92596 1637 ft 132 kts 274°
2026-05-06 09:15 64.59102 40.90467 1520 ft 130 kts 274°
2026-05-06 09:16 64.59201 40.88466 1338 ft 124 kts 274°
2026-05-06 09:16 64.59301 40.86423 1167 ft 130 kts 275°
2026-05-06 09:16 64.59403 40.84388 1009 ft 124 kts 276°
2026-05-06 09:16 64.59507 40.82366 780 ft 128 kts 275°
2026-05-06 09:17 64.59605 40.80303 650 ft 125 kts 275°
2026-05-06 09:17 64.59702 40.78277 455 ft 126 kts 275°
2026-05-06 09:17 64.59804 40.76240 255 ft 128 kts 276°
2026-05-06 09:17 64.59905 40.74194 73 ft 129 kts 276°
2026-05-06 09:18 64.59999 40.72221 31 ft 97 kts 276°
2026-05-06 09:18 64.60039 40.71363 35 ft 10 kts 275°
2026-05-06 09:18 64.60039 40.71354 35 ft 0 kts 275°
2026-05-06 09:18 64.60038 40.71349 35 ft 1 kts 233°
2026-05-06 09:19 64.60027 40.71344 35 ft 5 kts 188°
2026-05-06 09:19 64.59981 40.71328 37 ft 6 kts 186°
2026-05-06 09:19 64.59949 40.71320 37 ft 3 kts 187°
2026-05-06 09:19 64.59937 40.71317 37 ft 1 kts 188°
2026-05-06 09:20 64.59904 40.71307 37 ft 7 kts 186°
2026-05-06 09:20 64.59853 40.71294 37 ft 9 kts 187°
2026-05-06 09:20 64.59788 40.71276 37 ft 6 kts 185°
2026-05-06 09:20 64.59756 40.71268 37 ft 4 kts 186°
2026-05-06 09:21 64.59728 40.71299 37 ft 5 kts 109°
2026-05-06 09:21 64.59720 40.71378 37 ft 5 kts 129°
2026-05-06 09:21 64.59692 40.71395 37 ft 4 kts 184°
2026-05-06 09:21 64.59672 40.71391 37 ft 0 kts 187°
2026-05-06 09:22 64.59666 40.71389 37 ft 0 kts 187°
2026-05-06 09:22 64.59665 40.71389 37 ft 0 kts 187°